{"data":{"norad_id":67197,"intl_designator":"2025-304F","name":"STARLINK-36283","alt_names":[],"object_type":"PAYLOAD","status":"ACTIVE","operator":null,"country":"US","launch_date":"2025-12-17","launch_site_code":"AFWTR","launch_vehicle":null,"mission":null,"orbit_class":"UNKNOWN","rcs_meters":null,"size_class":null,"mass_kg":null,"dimensions":null,"purposes":["comms"],"wikipedia_slug":null,"has_3d_model":false,"image_url":null,"decayed_at":null,"tle_current":{"epoch":"2026-05-24T23:15:33.492096Z","epoch_age_seconds":73749,"freshness":"FRESH","line1":"1 67197U 25304F   26144.96913764  .00002832  00000+0  24501-3 0  9995","line2":"2 67197  70.0021 342.0054 0002297 270.1923  89.8973 14.98336401 25318","mean_motion":14.98336401,"eccentricity":0.0002297,"inclination_deg":70.0021,"raan_deg":342.0054,"arg_perigee_deg":270.1923,"mean_anomaly_deg":89.8973,"bstar":0.00024501,"rev_number":2531,"period_min":96.106588549737,"perigee_km":570.43964169015,"apogee_km":573.63255121066,"semimajor_km":6950.1730964504,"source":"CELESTRAK","updated_at":"2026-05-25T13:38:21.507460Z"}}}